Theta_e
329 329 328 326 326 325 323 325 327 326 323 322 322 322 321 321 322 323 322 320 318 317 319 321 322 322 322 321 318 316 316 316 317 318 319 320 320 320 321 322 323 324
328 327 326 326 325 323 323 324 325 325 323 321 321 321 321 322 322 322 320 318 317 317 318 320 321 321 321 320 317 314 315 315 315 316 317 317 318 319 320 322 323 324
326 325 325 325 324 323 323 324 323 322 320 319 320 320 321 322 321 319 318 318 318 317 317 318 319 319 319 320 318 314 314 315 315 315 316 317 318 318 319 321 323 324
325 325 324 324 324 323 323 322 321 320 318 318 319 319 320 321 320 319 319 319 318 317 317 317 317 316 316 318 319 315 314 314 314 314 315 316 317 317 318 319 321 323
324 325 325 324 324 323 322 321 320 319 318 319 318 318 318 319 319 319 319 319 318 317 317 315 314 313 314 317 318 316 314 314 314 314 314 314 315 315 317 318 319 321
324 325 324 324 324 323 322 321 320 319 319 319 318 318 318 318 318 318 318 318 318 317 317 315 312 312 314 316 316 315 314 313 313 313 313 313 313 313 314 316 317 320
324 324 324 323 323 323 322 321 321 320 319 319 318 317 317 317 317 318 317 317 317 317 315 314 312 312 314 315 315 314 313 313 313 313 313 313 313 312 313 313 315 317
324 324 323 323 324 323 322 321 321 321 319 318 317 316 316 315 315 316 317 316 316 315 314 313 313 313 313 314 314 314 313 313 314 315 314 313 313 313 312 313 313 314
324 324 323 324 324 323 322 322 322 321 319 317 316 316 316 316 314 315 316 316 315 314 314 313 313 313 313 313 314 314 314 314 314 314 314 314 313 313 313 313 313 313
323 324 323 324 323 323 323 323 322 320 318 316 316 317 317 315 314 314 315 316 315 314 313 313 313 314 314 314 314 314 314 314 315 314 313 314 313 313 313 312 313 313
323 323 323 323 323 323 323 322 321 320 318 316 317 317 316 314 313 314 316 316 315 315 314 314 315 315 315 315 314 314 314 315 315 315 314 314 314 314 313 314 313 313
323 323 323 322 322 323 322 322 321 320 317 317 318 317 315 313 313 314 315 315 315 315 315 315 315 316 316 315 315 315 316 317 316 315 315 315 315 315 315 316 316 315
323 323 323 323 322 322 321 321 321 319 318 318 318 317 315 314 314 314 315 315 316 316 316 315 316 316 316 316 316 317 318 318 317 316 315 315 316 316 316 316 318 317
323 323 322 321 321 321 320 320 320 319 318 318 318 317 316 315 315 315 315 315 316 316 316 316 316 317 317 317 318 318 318 319 319 317 315 317 318 318 317 317 318 319
322 322 322 321 320 320 319 319 318 317 316 318 319 318 317 316 316 316 315 315 316 316 316 316 317 318 318 319 320 319 318 319 320 318 317 318 319 320 319 319 319 319
321 322 323 322 321 320 319 317 315 313 315 318 319 318 318 317 317 318 317 316 317 317 317 316 316 318 319 320 320 320 319 319 320 320 319 320 321 321 320 320 320 320
319 320 321 321 320 320 318 315 312 312 316 319 319 318 318 317 317 318 318 318 319 318 318 317 317 318 319 320 321 321 320 320 321 321 321 321 322 322 321 321 320 320
318 318 319 319 319 318 317 316 315 316 318 319 318 318 318 318 318 319 319 319 319 319 319 319 319 319 320 320 321 321 321 321 321 322 322 322 322 322 322 321 321 320
318 319 319 319 319 318 318 318 319 319 319 319 319 319 319 319 319 319 319 319 319 319 320 320 320 320 320 321 321 321 321 322 322 323 323 323 322 322 322 321 320 320
319 319 319 319 319 319 319 319 320 319 319 319 319 318 318 318 318 319 319 319 319 319 319 320 320 320 321 321 321 321 322 322 323 323 322 322 321 320 320 320 320 319
318 318 318 318 319 320 320 320 320 320 319 318 318 317 317 318 319 319 319 319 319 319 319 320 320 320 320 321 321 321 321 321 322 321 321 320 319 319 320 320 320 319
313 315 316 317 318 320 320 320 319 319 319 319 319 319 319 319 319 319 319 319 319 319 319 319 320 320 319 319 319 319 319 320 320 320 319 319 318 319 320 320 319 318
307 309 310 312 315 317 318 319 319 319 319 319 319 319 319 319 319 319 319 319 319 319 320 319 319 319 318 317 318 319 319 319 319 319 318 318 318 319 320 320 319 317
302 303 303 305 307 308 310 312 315 317 319 320 320 319 319 319 318 318 318 318 318 318 319 319 318 318 318 318 319 319 319 319 318 318 318 318 318 319 319 319 318 317
301 301 301 301 301 302 302 304 306 309 312 316 318 319 320 320 319 319 320 319 318 317 318 319 319 318 318 318 318 318 318 318 318 318 318 318 318 319 319 319 318 317
300 300 300 301 301 301 301 302 302 303 304 307 309 311 314 316 317 318 319 319 319 319 319 319 319 318 319 319 318 318 318 318 318 318 318 318 319 319 318 318 317 317
Wind_Speed
22 22 22 22 21 19 18 19 19 18 17 15 14 12 11 11 11 13 12 9 6 5 6 6 6 5 5 4 4 4 6 6 6 6 5 6 5 4 4 3 4 5
21 21 21 21 20 18 17 18 18 18 16 14 13 12 11 12 14 14 11 8 7 5 5 5 5 5 4 5 5 6 7 7 7 7 6 6 5 4 4 3 3 2
22 21 21 21 20 19 18 18 18 17 16 15 14 12 12 14 15 13 10 9 8 6 5 4 5 4 4 5 5 6 7 7 7 7 6 5 5 3 3 3 4 4
22 22 22 21 20 20 20 19 19 18 16 15 14 13 12 13 13 13 11 10 8 7 5 3 3 3 4 6 6 6 7 7 7 6 5 5 5 3 1 2 4 4
23 23 22 21 22 21 21 20 19 18 17 15 14 13 12 12 12 12 12 11 9 7 4 3 2 4 6 8 8 8 7 6 6 5 5 7 7 4 2 3 5 5
23 23 22 22 22 22 20 19 17 16 15 15 14 13 12 12 11 11 11 10 9 7 5 3 3 5 7 8 9 9 7 6 6 6 6 7 8 6 4 4 5 6
23 23 22 22 22 21 19 18 16 14 14 14 13 13 12 11 11 11 11 10 9 7 5 4 4 6 7 8 9 9 7 7 7 6 7 7 7 7 6 5 4 5
23 23 23 22 21 20 18 17 16 14 14 14 14 13 12 11 11 12 11 10 9 8 6 6 6 6 7 9 9 9 8 8 7 6 6 7 7 7 6 5 5 5
23 23 23 22 21 21 19 18 17 16 14 14 14 14 12 11 11 12 13 12 10 9 7 7 7 6 7 8 9 9 8 8 6 6 6 6 6 6 6 5 4 5
23 23 23 23 22 22 21 20 18 17 15 14 14 13 12 12 12 13 14 13 11 9 8 8 8 7 7 8 9 9 9 7 6 5 6 6 5 4 4 3 3 4
24 24 23 24 23 23 23 21 20 18 16 16 15 13 13 13 13 14 13 12 11 10 9 9 8 8 7 7 8 9 8 6 5 5 5 5 4 3 3 3 2 3
24 24 24 24 25 25 24 21 20 18 17 17 15 13 14 15 14 14 12 11 11 10 9 9 8 8 7 7 7 8 7 5 5 6 6 5 4 3 3 2 2 3
22 22 23 25 25 25 23 22 21 19 17 16 14 13 16 15 14 14 13 12 11 10 9 9 9 9 9 8 8 8 7 6 6 7 7 5 5 4 4 3 2 2
20 21 21 21 21 20 18 17 18 17 15 15 14 14 15 14 12 13 14 13 12 10 10 10 10 10 10 10 10 10 9 8 7 9 9 7 6 5 5 5 4 3
21 22 20 17 17 18 16 14 14 15 15 16 16 14 14 13 12 13 14 15 14 12 13 13 13 13 12 12 12 12 12 10 9 10 10 9 8 7 7 6 6 5
20 22 22 19 18 20 21 21 19 17 17 19 18 16 14 14 14 14 15 15 15 14 15 15 15 15 14 13 13 13 14 13 12 11 11 11 10 9 8 8 8 8
13 16 18 19 19 20 23 26 24 21 20 20 19 17 15 15 16 17 16 16 15 15 15 16 16 16 15 14 14 14 15 15 15 14 13 13 12 12 11 10 10 11
7 7 9 13 17 18 19 21 23 21 19 19 19 17 16 16 16 16 16 16 16 15 15 15 15 15 16 16 16 17 17 18 17 17 16 15 15 15 14 13 13 13
6 5 5 7 11 14 14 15 17 17 16 16 16 16 16 16 15 15 16 16 17 17 16 16 16 16 17 18 18 19 19 20 19 19 18 17 17 16 16 15 16 16
5 4 3 3 5 8 11 12 13 14 14 15 15 16 17 17 16 17 17 17 17 17 17 16 17 18 18 18 19 20 21 21 21 21 20 19 18 18 17 17 17 17
13 8 6 5 3 4 7 8 7 7 8 11 12 14 15 15 16 16 17 18 19 18 17 17 18 19 19 19 20 22 23 23 23 22 21 20 19 18 18 18 18 18
20 17 14 11 6 4 4 4 2 1 2 4 5 7 9 11 12 13 14 16 18 18 18 18 18 17 17 18 20 21 22 23 23 23 21 20 19 19 19 19 18 18
26 24 21 18 14 10 6 3 2 1 0 1 2 3 4 6 8 10 10 12 13 13 14 15 15 14 16 18 20 20 21 21 22 22 21 20 20 20 19 19 18 17
28 27 26 24 22 20 16 12 9 6 4 2 1 1 1 3 6 8 9 10 9 10 13 13 12 13 16 18 19 19 20 20 20 21 21 21 22 21 19 18 17 16
26 27 26 26 25 24 23 20 18 16 12 8 6 3 1 3 5 6 7 7 6 8 12 13 12 13 15 16 17 18 18 19 20 21 22 23 22 21 19 19 18 17
23 23 23 23 23 22 21 21 20 20 18 17 15 11 7 5 5 5 6 5 5 6 9 10 11 12 13 15 17 17 18 19 20 21 23 23 22 21 20 20 19 18
Wind_Direction
186 185 184 184 182 180 181 183 182 180 179 181 184 181 179 181 174 166 162 157 153 142 130 134 138 136 128 117 118 127 122 119 124 127 133 141 139 143 146 160 185 192
187 186 184 181 179 178 179 179 180 183 184 183 182 178 175 173 166 162 161 155 148 140 136 144 153 154 147 135 133 135 128 117 115 119 123 125 115 105 95 94 121 141
188 187 184 181 177 175 177 178 180 183 182 179 178 176 173 170 166 164 161 157 151 146 149 159 166 173 175 163 151 145 139 127 120 121 124 122 110 88 57 60 89 100
190 188 186 183 179 176 177 180 182 182 179 176 175 176 174 171 170 170 168 164 161 157 155 161 165 162 164 168 169 162 150 138 130 128 128 125 119 99 50 79 91 95
192 191 189 186 183 180 180 182 182 182 179 176 174 174 174 170 168 170 172 171 168 166 161 152 156 153 152 160 170 171 162 152 146 148 147 135 126 122 131 127 106 103
194 195 192 189 185 182 183 183 184 184 182 180 176 175 176 173 169 169 171 173 172 171 166 163 167 158 154 158 164 166 165 161 160 166 165 144 128 123 123 125 116 116
197 197 194 192 187 185 185 184 186 189 187 186 181 178 178 177 176 174 172 173 174 171 168 176 180 168 163 165 163 162 162 156 150 154 157 144 131 125 119 118 123 129
200 199 196 193 189 187 187 187 190 193 192 191 185 181 181 181 180 178 176 173 172 173 175 182 188 185 178 176 171 165 160 154 146 141 140 135 130 129 121 115 120 125
199 198 196 193 190 189 188 190 194 195 194 192 186 183 185 185 183 181 179 176 175 180 181 181 187 193 188 182 179 176 169 162 154 144 141 136 130 129 122 115 116 115
196 195 193 192 191 189 189 192 195 194 194 193 188 186 188 188 187 184 181 178 178 182 180 176 181 191 190 183 183 185 182 174 163 153 150 147 141 136 127 115 115 120
193 192 192 192 191 190 191 194 194 193 195 194 191 190 188 186 186 186 183 180 178 179 177 174 178 189 195 189 186 189 190 190 189 180 169 163 162 163 156 140 131 145
190 189 190 190 191 192 194 195 193 193 196 195 193 193 188 183 183 188 189 185 183 182 180 182 188 196 202 199 195 199 204 214 221 210 196 190 190 195 190 173 157 164
189 191 191 189 190 193 194 195 194 195 197 196 196 198 192 184 183 190 192 190 190 191 189 192 201 207 212 215 215 220 225 230 231 224 218 215 218 217 210 199 180 172
186 187 187 185 186 187 186 189 191 194 201 204 206 206 198 193 193 195 194 194 197 201 200 201 210 217 223 230 235 236 236 238 237 233 228 225 228 228 221 219 213 202
184 181 182 184 181 176 175 182 188 195 207 215 219 216 206 204 207 206 203 203 204 207 210 212 218 225 231 238 244 246 243 242 240 236 233 233 235 234 231 232 233 232
181 181 184 190 190 186 188 194 198 206 216 221 225 223 214 213 216 215 213 212 211 211 215 220 226 233 240 245 250 253 251 248 246 241 239 241 241 240 242 244 246 248
172 180 182 188 194 195 196 198 204 215 223 224 226 227 222 221 222 222 222 222 222 219 219 224 230 236 244 250 253 256 254 252 253 251 248 249 249 250 253 253 254 256
168 182 182 188 195 198 201 205 209 218 224 224 226 228 227 229 229 229 230 232 234 233 229 230 236 242 249 253 255 257 255 252 252 253 253 256 257 258 259 260 260 260
180 195 191 189 194 201 210 214 213 216 221 223 225 226 229 235 240 241 240 240 241 242 242 243 247 252 254 255 256 255 253 251 249 251 254 257 259 260 261 262 261 259
138 171 171 151 169 194 206 211 215 217 220 225 229 232 236 241 246 248 248 247 246 247 249 251 251 252 251 250 251 252 250 249 249 250 253 256 259 261 262 261 259 258
94 109 118 120 141 187 196 203 217 226 231 236 241 246 249 250 250 251 250 248 248 249 249 249 250 250 248 247 247 248 249 249 250 251 253 256 259 260 260 259 259 260
81 89 97 108 125 150 162 172 190 227 247 257 258 256 260 258 252 251 251 251 252 253 253 253 253 252 253 255 256 257 257 255 253 254 256 258 259 258 258 259 259 258
74 77 80 87 96 102 103 99 79 69 31 343 294 266 270 269 258 254 258 263 265 265 263 260 258 257 259 263 266 268 267 263 259 259 260 261 261 260 260 261 259 255
74 74 74 74 76 78 76 72 70 70 67 58 25 278 267 275 273 273 278 285 289 287 281 276 271 267 266 267 270 272 272 269 265 264 265 265 263 262 261 260 256 249
71 71 70 69 67 67 67 65 65 66 67 69 70 63 353 293 295 296 301 311 310 287 281 286 287 280 275 276 277 276 275 272 269 269 269 268 266 263 261 256 248 238
60 61 61 61 61 60 59 58 59 61 63 65 66 64 57 34 5 343 326 320 304 273 275 287 290 284 279 277 276 275 273 271 270 270 271 271 269 265 260 252 243 233